Regional Weather Roundup
Issued by NWS

Home | Current Version | Previous Version | Graphics & Text | Print | Product List | Glossary On
Versions: 1 2 3 4 5 6 7 8 9 10 11 12 13 14 15 16 17 18 19 20 21 22 23 24 25 26 27 28 29 30 31 32 33 34 35 36 37 38 39 40 41 42 43 44 45 46 47 48 49 50
000
ASUS45 KBOI 280710
RWRID
WEATHER ROUNDUP FOR IDAHO
NATIONAL WEATHER SERVICE BOISE ID
100 AM MDT SAT MAR 28 2015

NOTE: "FAIR" INDICATES FEW OR NO CLOUDS BELOW 12000 FEET
WITH NO SIGNIFICANT WEATHER AND/OR OBSTRUCTIONS TO VISIBILITY

IDZ012-014-280800-
SOUTHWEST IDAHO


CITY           SKY/WX    TMP DP  RH WIND       PRES   REMARKS
BOISE          CLEAR     63  40  42 SE12      29.94F
CALDWELL       CLEAR     54  37  54 W5        29.95R
MOUNTAIN HOME  CLEAR     52  39  61 SE13      29.96F
$$

IDZ016-017-280800-
SOUTHCENTRAL IDAHO


CITY           SKY/WX    TMP DP  RH WIND       PRES   REMARKS
BURLEY         CLEAR     58  29  33 S16       30.04F
JEROME         CLEAR     54  37  52 E7        30.04F
TWIN FALLS     CLEAR     59  32  36 S16       30.03F
$$

IDZ019>023-280800-
SOUTHEAST IDAHO


CITY           SKY/WX    TMP DP  RH WIND       PRES   REMARKS
IDAHO FALLS    CLEAR     51  33  50 W7        30.10S
POCATELLO      CLEAR     59  30  33 CALM      30.08F
REXBURG        CLEAR     51  33  50 SW5       30.10S
$$

IDZ006-010-011-018-031-032-280800-
CENTRAL IDAHO MOUNTAINS


CITY           SKY/WX    TMP DP  RH WIND       PRES   REMARKS
MCCALL         MOCLDY    44  38  79 CALM      29.99F
HAILEY         PTCLDY    46  34  61 NW9       30.14S
STANLEY          N/A     36  29  75 CALM      30.13F
SALMON         CLEAR    N/A N/A N/A CALM      30.00F
CHALLIS        CLOUDY    47  33  58 E3        30.06F
$$

IDZ002-004-006-007-026-280800-
NORTHERN IDAHO


CITY           SKY/WX    TMP DP  RH WIND       PRES   REMARKS
LEWISTON       MOCLDY    60  52  74 SW9       29.85R
LOWELL           N/A     48  46  93 N3        29.88F
COEUR D`ALENE  CLOUDY    54  46  76 SW8       29.86R
MULLAN PASS    CLOUDY    46  37  71 S7        29.95F
$$



USA.gov is the U.S. government's official web portal to all federal, state and local government web resources and services.